Time,TemperatureF,DewpointF,PressureIn,WindDirection,WindDirectionDegrees,WindSpeedMPH,WindSpeedGustMPH,Humidity,HourlyPrecipIn,Conditions,Clouds,dailyrainin,SoftwareType,DateUTC
2013-01-29 00:02:00,51.1,42.4,29.57,NNE,22,4.0,7.0,72,0.00,,,0.13,meteohub,2013-01-29 00:02:00,
2013-01-29 00:08:00,51.3,42.3,29.57,WNW,292,4.0,7.0,71,0.00,,,0.00,meteohub,2013-01-29 00:08:00,
2013-01-29 00:14:00,51.4,42.1,29.54,WNW,292,6.0,10.0,70,0.00,,,0.00,meteohub,2013-01-29 00:14:00,
2013-01-29 00:20:00,51.4,41.5,29.54,NW,315,5.0,10.0,69,0.00,,,0.00,meteohub,2013-01-29 00:20:00,
2013-01-29 00:27:00,51.4,41.2,29.57,NNW,338,4.0,8.0,68,0.00,,,0.00,meteohub,2013-01-29 00:27:00,
2013-01-29 00:31:00,51.4,41.2,29.57,East,90,3.0,8.0,68,0.00,,,0.00,meteohub,2013-01-29 00:31:00,
2013-01-29 00:37:00,51.4,40.8,29.57,West,270,3.0,7.0,67,0.00,,,0.00,meteohub,2013-01-29 00:37:00,
2013-01-29 00:42:00,51.3,40.6,29.57,North,0,3.0,8.0,67,0.00,,,0.00,meteohub,2013-01-29 00:42:00,
2013-01-29 00:47:00,51.3,40.3,29.57,NW,315,2.0,8.0,66,0.00,,,0.00,meteohub,2013-01-29 00:47:00,
2013-01-29 00:52:00,51.4,40.1,29.57,West,270,4.0,6.0,65,0.00,,,0.00,meteohub,2013-01-29 00:52:00,
2013-01-29 00:57:00,51.3,39.9,29.57,NW,315,3.0,8.0,65,0.00,,,0.00,meteohub,2013-01-29 00:57:00,
2013-01-29 01:02:00,51.4,39.7,29.57,NW,315,4.0,8.0,64,0.00,,,0.00,meteohub,2013-01-29 01:02:00,
2013-01-29 01:07:00,51.4,39.7,29.57,SSW,202,6.0,8.0,64,0.00,,,0.00,meteohub,2013-01-29 01:07:00,
2013-01-29 01:12:00,51.6,39.0,29.57,NW,315,8.0,10.0,62,0.00,,,0.00,meteohub,2013-01-29 01:12:00,
2013-01-29 01:17:00,51.6,38.7,29.57,NNW,338,3.0,10.0,61,0.00,,,0.00,meteohub,2013-01-29 01:17:00,
2013-01-29 01:22:00,51.6,38.7,29.57,WSW,248,3.0,10.0,61,0.00,,,0.00,meteohub,2013-01-29 01:22:00,
2013-01-29 01:27:00,51.6,38.7,29.57,NW,315,4.0,9.0,61,0.00,,,0.00,meteohub,2013-01-29 01:27:00,
2013-01-29 01:32:00,51.4,38.8,29.57,WNW,292,2.0,9.0,62,0.00,,,0.00,meteohub,2013-01-29 01:32:00,
2013-01-29 01:37:00,51.4,39.2,29.57,SW,225,3.0,9.0,63,0.00,,,0.00,meteohub,2013-01-29 01:37:00,
2013-01-29 01:42:00,51.3,39.6,29.57,SW,225,4.0,8.0,64,0.00,,,0.00,meteohub,2013-01-29 01:42:00,
2013-01-29 01:46:00,51.3,40.3,29.57,NW,315,3.0,8.0,66,0.00,,,0.00,meteohub,2013-01-29 01:46:00,
2013-01-29 01:51:00,51.3,40.6,29.57,SW,225,3.0,8.0,67,0.00,,,0.00,meteohub,2013-01-29 01:51:00,
2013-01-29 01:57:00,51.3,41.5,29.57,WNW,292,3.0,8.0,69,0.00,,,0.00,meteohub,2013-01-29 01:57:00,
2013-01-29 02:02:00,51.3,41.5,29.57,WSW,248,5.0,8.0,69,0.00,,,0.00,meteohub,2013-01-29 02:02:00,
2013-01-29 02:07:00,51.3,41.9,29.57,WNW,292,3.0,8.0,70,0.00,,,0.00,meteohub,2013-01-29 02:07:00,
2013-01-29 02:12:00,51.3,41.9,29.57,NW,315,4.0,8.0,70,0.00,,,0.00,meteohub,2013-01-29 02:12:00,
2013-01-29 02:16:00,51.1,41.7,29.57,WNW,292,0.0,8.0,70,0.00,,,0.00,meteohub,2013-01-29 02:16:00,
2013-01-29 02:21:00,51.3,42.3,29.57,SW,225,4.0,5.0,71,0.00,,,0.00,meteohub,2013-01-29 02:21:00,
2013-01-29 02:27:00,51.3,41.9,29.57,South,180,3.0,5.0,70,0.00,,,0.00,meteohub,2013-01-29 02:27:00,
2013-01-29 02:32:00,51.3,41.9,29.57,WSW,248,3.0,6.0,70,0.00,,,0.00,meteohub,2013-01-29 02:32:00,
2013-01-29 02:37:00,51.3,41.9,29.57,WSW,248,3.0,6.0,70,0.00,,,0.00,meteohub,2013-01-29 02:37:00,
2013-01-29 02:42:00,51.3,42.3,29.60,SW,225,3.0,6.0,71,0.00,,,0.00,meteohub,2013-01-29 02:42:00,
2013-01-29 02:47:00,51.4,42.4,29.60,NW,315,4.0,6.0,71,0.00,,,0.00,meteohub,2013-01-29 02:47:00,
2013-01-29 02:52:00,51.4,42.4,29.60,West,270,4.0,6.0,71,0.00,,,0.00,meteohub,2013-01-29 02:52:00,
2013-01-29 02:57:00,51.4,42.8,29.57,WSW,248,3.0,6.0,72,0.00,,,0.00,meteohub,2013-01-29 02:57:00,
2013-01-29 03:02:00,51.3,43.0,29.57,NNE,22,2.0,7.0,73,0.00,,,0.00,meteohub,2013-01-29 03:02:00,
2013-01-29 03:07:00,51.3,43.3,29.57,SW,225,5.0,8.0,74,0.00,,,0.00,meteohub,2013-01-29 03:07:00,
2013-01-29 03:12:00,51.1,43.5,29.57,WSW,248,5.0,8.0,75,0.00,,,0.00,meteohub,2013-01-29 03:12:00,
2013-01-29 03:17:00,51.1,43.5,29.57,NW,315,6.0,8.0,75,0.00,,,0.00,meteohub,2013-01-29 03:17:00,
2013-01-29 03:22:00,50.9,43.7,29.57,NW,315,4.0,8.0,76,0.00,,,0.00,meteohub,2013-01-29 03:22:00,
2013-01-29 03:27:00,50.9,43.9,29.57,NW,315,5.0,8.0,77,0.00,,,0.00,meteohub,2013-01-29 03:27:00,
2013-01-29 03:32:00,50.9,44.2,29.57,NW,315,2.0,7.0,78,0.00,,,0.00,meteohub,2013-01-29 03:32:00,
2013-01-29 03:37:00,50.5,44.2,29.57,NW,315,4.0,7.0,79,0.00,,,0.00,meteohub,2013-01-29 03:37:00,
2013-01-29 03:42:00,50.4,44.4,29.57,North,0,3.0,6.0,80,0.00,,,0.00,meteohub,2013-01-29 03:42:00,
2013-01-29 03:46:00,50.2,44.6,29.57,WSW,248,3.0,6.0,81,0.00,,,0.00,meteohub,2013-01-29 03:46:00,
2013-01-29 03:52:00,50.2,45.0,29.57,WSW,248,4.0,6.0,82,0.00,,,0.00,meteohub,2013-01-29 03:52:00,
2013-01-29 03:57:00,50.2,45.1,29.57,West,270,3.0,6.0,83,0.00,,,0.00,meteohub,2013-01-29 03:57:00,
2013-01-29 04:02:00,50.2,45.1,29.57,WSW,248,4.0,7.0,83,0.00,,,0.00,meteohub,2013-01-29 04:02:00,
2013-01-29 04:07:00,50.4,45.7,29.57,West,270,4.0,7.0,84,0.00,,,0.00,meteohub,2013-01-29 04:07:00,
2013-01-29 04:12:00,50.4,46.0,29.57,NW,315,3.0,7.0,85,0.00,,,0.00,meteohub,2013-01-29 04:12:00,
2013-01-29 04:17:00,50.5,46.6,29.57,North,0,2.0,5.0,86,0.00,,,0.00,meteohub,2013-01-29 04:17:00,
2013-01-29 04:21:00,50.5,46.8,29.57,SW,225,5.0,6.0,87,0.00,,,0.00,meteohub,2013-01-29 04:21:00,
2013-01-29 04:27:00,50.7,47.3,29.57,WSW,248,4.0,6.0,88,0.00,,,0.00,meteohub,2013-01-29 04:27:00,
2013-01-29 04:32:00,50.7,47.7,29.57,NW,315,4.0,6.0,89,0.00,,,0.00,meteohub,2013-01-29 04:32:00,
2013-01-29 04:37:00,50.7,47.8,29.57,West,270,4.0,6.0,90,0.00,,,0.00,meteohub,2013-01-29 04:37:00,
2013-01-29 04:42:00,50.7,47.8,29.57,WSW,248,4.0,8.0,90,0.00,,,0.00,meteohub,2013-01-29 04:42:00,
2013-01-29 04:47:00,50.5,48.0,29.57,NW,315,3.0,8.0,91,0.00,,,0.00,meteohub,2013-01-29 04:47:00,
2013-01-29 04:52:00,50.5,48.0,29.57,SW,225,4.0,8.0,91,0.00,,,0.00,meteohub,2013-01-29 04:52:00,
2013-01-29 04:57:00,50.4,47.8,29.57,SE,135,3.0,6.0,91,0.00,,,0.00,meteohub,2013-01-29 04:57:00,
2013-01-29 05:01:00,50.2,48.0,29.57,WNW,292,0.0,6.0,92,0.00,,,0.00,meteohub,2013-01-29 05:01:00,
2013-01-29 05:03:00,50.2,48.0,29.57,WNW,292,0.0,6.0,92,0.00,,,0.00,meteohub,2013-01-29 05:03:00,
2013-01-29 05:07:00,50.2,48.0,29.57,NNW,338,3.0,6.0,92,0.00,,,0.00,meteohub,2013-01-29 05:07:00,
2013-01-29 05:13:00,50.2,48.0,29.57,WNW,292,3.0,5.0,92,0.00,,,0.00,meteohub,2013-01-29 05:13:00,
2013-01-29 05:19:00,50.2,48.2,29.57,West,270,3.0,7.0,93,0.00,,,0.00,meteohub,2013-01-29 05:19:00,
2013-01-29 05:25:00,50.2,48.2,29.57,North,0,3.0,7.0,93,0.00,,,0.00,meteohub,2013-01-29 05:25:00,
2013-01-29 05:31:00,50.2,48.2,29.54,WNW,292,4.0,7.0,93,0.00,,,0.00,meteohub,2013-01-29 05:31:00,
2013-01-29 05:37:00,50.2,48.2,29.54,WSW,248,4.0,7.0,93,0.00,,,0.00,meteohub,2013-01-29 05:37:00,
2013-01-29 05:42:00,50.2,48.2,29.54,WNW,292,3.0,7.0,93,0.00,,,0.00,meteohub,2013-01-29 05:42:00,
2013-01-29 05:47:00,50.2,48.2,29.54,West,270,3.0,6.0,93,0.00,,,0.00,meteohub,2013-01-29 05:47:00,
2013-01-29 05:51:00,50.0,48.0,29.54,West,270,3.0,6.0,93,0.00,,,0.00,meteohub,2013-01-29 05:51:00,
2013-01-29 05:57:00,50.0,48.4,29.54,WSW,248,0.0,6.0,94,0.00,,,0.00,meteohub,2013-01-29 05:57:00,
2013-01-29 06:02:00,50.0,48.4,29.54,WSW,248,3.0,5.0,94,0.00,,,0.00,meteohub,2013-01-29 06:02:00,
2013-01-29 06:06:00,50.2,48.6,29.54,WSW,248,0.0,5.0,94,0.00,,,0.00,meteohub,2013-01-29 06:06:00,
2013-01-29 06:12:00,50.2,48.6,29.54,West,270,0.0,5.0,94,0.00,,,0.00,meteohub,2013-01-29 06:12:00,
2013-01-29 06:17:00,50.2,48.6,29.54,WNW,292,4.0,5.0,94,0.00,,,0.00,meteohub,2013-01-29 06:17:00,
2013-01-29 06:22:00,50.2,48.6,29.54,SSW,202,0.0,4.0,94,0.00,,,0.00,meteohub,2013-01-29 06:22:00,
2013-01-29 06:27:00,50.2,48.6,29.54,WSW,248,0.0,4.0,94,0.00,,,0.00,meteohub,2013-01-29 06:27:00,
2013-01-29 06:32:00,50.2,48.6,29.54,WSW,248,0.0,4.0,94,0.00,,,0.00,meteohub,2013-01-29 06:32:00,
2013-01-29 06:36:00,50.2,48.6,29.54,SW,225,2.0,3.0,94,0.00,,,0.00,meteohub,2013-01-29 06:36:00,
2013-01-29 06:42:00,50.4,48.7,29.54,SW,225,4.0,4.0,94,0.00,,,0.00,meteohub,2013-01-29 06:42:00,
2013-01-29 06:47:00,50.4,48.9,29.54,West,270,0.0,6.0,95,0.00,,,0.00,meteohub,2013-01-29 06:47:00,
2013-01-29 06:51:00,50.5,49.1,29.54,WSW,248,4.0,6.0,95,0.00,,,0.00,meteohub,2013-01-29 06:51:00,
2013-01-29 06:57:00,50.5,49.1,29.54,WNW,292,0.0,6.0,95,0.00,,,0.00,meteohub,2013-01-29 06:57:00,
2013-01-29 07:02:00,50.5,49.1,29.54,West,270,3.0,4.0,95,0.00,,,0.00,meteohub,2013-01-29 07:02:00,
2013-01-29 07:07:00,50.7,49.3,29.54,NNE,22,2.0,4.0,95,0.00,,,0.00,meteohub,2013-01-29 07:07:00,
2013-01-29 07:12:00,51.1,49.6,29.54,South,180,3.0,4.0,95,0.00,,,0.00,meteohub,2013-01-29 07:12:00,
2013-01-29 07:17:00,51.4,50.0,29.54,WNW,292,4.0,6.0,95,0.00,,,0.00,meteohub,2013-01-29 07:17:00,
2013-01-29 07:22:00,51.6,50.2,29.54,NW,315,5.0,8.0,95,0.00,,,0.00,meteohub,2013-01-29 07:22:00,
2013-01-29 07:27:00,51.6,50.2,29.54,WSW,248,2.0,8.0,95,0.00,,,0.00,meteohub,2013-01-29 07:27:00,
2013-01-29 07:32:00,51.8,50.4,29.54,WSW,248,3.0,6.0,95,0.00,,,0.00,meteohub,2013-01-29 07:32:00,
2013-01-29 07:37:00,52.0,50.5,29.54,WNW,292,4.0,6.0,95,0.00,,,0.00,meteohub,2013-01-29 07:37:00,
2013-01-29 07:42:00,52.3,50.9,29.54,West,270,3.0,6.0,95,0.00,,,0.00,meteohub,2013-01-29 07:42:00,
2013-01-29 07:47:00,52.3,50.9,29.54,West,270,0.0,8.0,95,0.00,,,0.00,meteohub,2013-01-29 07:47:00,
2013-01-29 07:51:00,52.5,51.1,29.54,West,270,3.0,8.0,95,0.00,,,0.00,meteohub,2013-01-29 07:51:00,
2013-01-29 07:57:00,52.9,51.4,29.54,NW,315,0.0,8.0,95,0.00,,,0.00,meteohub,2013-01-29 07:57:00,
2013-01-29 08:02:00,53.1,51.6,29.54,North,0,5.0,8.0,95,0.00,,,0.00,meteohub,2013-01-29 08:02:00,
2013-01-29 08:07:00,53.2,52.2,29.54,WNW,292,3.0,8.0,96,0.00,,,0.00,meteohub,2013-01-29 08:07:00,
2013-01-29 08:11:00,53.2,52.2,29.54,SSW,202,2.0,8.0,96,0.00,,,0.00,meteohub,2013-01-29 08:11:00,
2013-01-29 08:17:00,53.4,52.0,29.54,NW,315,3.0,8.0,95,0.00,,,0.00,meteohub,2013-01-29 08:17:00,
2013-01-29 08:22:00,53.6,52.2,29.54,WNW,292,0.0,8.0,95,0.00,,,0.00,meteohub,2013-01-29 08:22:00,
2013-01-29 08:26:00,53.6,52.2,29.54,WSW,248,4.0,6.0,95,0.00,,,0.00,meteohub,2013-01-29 08:26:00,
2013-01-29 08:32:00,53.8,52.3,29.54,NE,45,4.0,7.0,95,0.00,,,0.00,meteohub,2013-01-29 08:32:00,
2013-01-29 08:37:00,54.0,52.5,29.54,West,270,3.0,7.0,95,0.00,,,0.00,meteohub,2013-01-29 08:37:00,
2013-01-29 08:42:00,54.1,52.7,29.54,WNW,292,4.0,8.0,95,0.00,,,0.00,meteohub,2013-01-29 08:42:00,
2013-01-29 08:47:00,54.3,52.9,29.54,WNW,292,0.0,8.0,95,0.00,,,0.00,meteohub,2013-01-29 08:47:00,
2013-01-29 08:52:00,54.5,53.1,29.54,North,0,3.0,8.0,95,0.00,,,0.00,meteohub,2013-01-29 08:52:00,
2013-01-29 08:56:00,54.5,53.1,29.54,WNW,292,0.0,8.0,95,0.00,,,0.00,meteohub,2013-01-29 08:56:00,
2013-01-29 09:02:00,54.5,52.9,29.54,SW,225,3.0,6.0,94,0.00,,,0.00,meteohub,2013-01-29 09:02:00,
2013-01-29 09:07:00,54.7,53.1,29.54,WSW,248,0.0,6.0,94,0.00,,,0.00,meteohub,2013-01-29 09:07:00,
2013-01-29 09:12:00,54.7,53.1,29.54,SW,225,4.0,5.0,94,0.00,,,0.00,meteohub,2013-01-29 09:12:00,
2013-01-29 09:17:00,54.9,53.2,29.54,WSW,248,2.0,5.0,94,0.00,,,0.00,meteohub,2013-01-29 09:17:00,
2013-01-29 09:22:00,54.9,53.2,29.54,NW,315,4.0,6.0,94,0.00,,,0.00,meteohub,2013-01-29 09:22:00,
2013-01-29 09:27:00,54.9,52.9,29.57,North,0,2.0,7.0,93,0.00,,,0.00,meteohub,2013-01-29 09:27:00,
2013-01-29 09:32:00,55.0,53.1,29.57,West,270,3.0,7.0,93,0.00,,,0.00,meteohub,2013-01-29 09:32:00,
2013-01-29 09:37:00,55.0,53.1,29.57,SW,225,4.0,8.0,93,0.00,,,0.00,meteohub,2013-01-29 09:37:00,
2013-01-29 09:42:00,55.2,52.9,29.57,ESE,112,0.0,8.0,92,0.00,,,0.00,meteohub,2013-01-29 09:42:00,
2013-01-29 09:47:00,55.2,52.9,29.57,WSW,248,3.0,9.0,92,0.00,,,0.00,meteohub,2013-01-29 09:47:00,
2013-01-29 09:52:00,55.2,52.7,29.57,NW,315,4.0,9.0,91,0.00,,,0.00,meteohub,2013-01-29 09:52:00,
2013-01-29 09:57:00,55.4,52.9,29.54,SSE,158,3.0,10.0,91,0.00,,,0.00,meteohub,2013-01-29 09:57:00,
2013-01-29 10:02:00,55.4,52.5,29.54,WNW,292,4.0,10.0,90,0.00,,,0.00,meteohub,2013-01-29 10:02:00,
2013-01-29 10:08:00,55.6,52.3,29.54,WSW,248,7.0,10.0,89,0.00,,,0.00,meteohub,2013-01-29 10:08:00,
2013-01-29 10:14:00,55.6,52.3,29.57,West,270,3.0,8.0,89,0.00,,,0.00,meteohub,2013-01-29 10:14:00,
2013-01-29 10:20:00,55.6,52.3,29.57,WNW,292,5.0,8.0,89,0.00,,,0.00,meteohub,2013-01-29 10:20:00,
2013-01-29 10:26:00,55.6,52.2,29.57,WSW,248,3.0,8.0,88,0.00,,,0.00,meteohub,2013-01-29 10:26:00,
2013-01-29 10:32:00,55.6,52.2,29.57,SW,225,3.0,10.0,88,0.00,,,0.00,meteohub,2013-01-29 10:32:00,
2013-01-29 10:37:00,55.6,52.2,29.57,ESE,112,5.0,10.0,88,0.00,,,0.00,meteohub,2013-01-29 10:37:00,
2013-01-29 10:42:00,55.6,51.8,29.57,WNW,292,3.0,10.0,87,0.00,,,0.00,meteohub,2013-01-29 10:42:00,
2013-01-29 10:47:00,55.8,51.6,29.57,WSW,248,3.0,10.0,86,0.00,,,0.00,meteohub,2013-01-29 10:47:00,
2013-01-29 10:52:00,55.8,51.6,29.57,West,270,3.0,10.0,86,0.00,,,0.00,meteohub,2013-01-29 10:52:00,
2013-01-29 10:57:00,55.8,51.3,29.57,NW,315,4.0,9.0,85,0.00,,,0.00,meteohub,2013-01-29 10:57:00,
2013-01-29 11:02:00,55.9,51.4,29.57,NW,315,3.0,8.0,85,0.00,,,0.00,meteohub,2013-01-29 11:02:00,
2013-01-29 11:07:00,55.9,51.3,29.57,SSE,158,4.0,9.0,84,0.00,,,0.00,meteohub,2013-01-29 11:07:00,
2013-01-29 11:12:00,56.1,51.4,29.57,WSW,248,5.0,10.0,84,0.00,,,0.00,meteohub,2013-01-29 11:12:00,
2013-01-29 11:17:00,56.1,51.4,29.57,WSW,248,3.0,10.0,84,0.00,,,0.00,meteohub,2013-01-29 11:17:00,
2013-01-29 11:21:00,56.3,51.6,29.57,West,270,3.0,8.0,84,0.00,,,0.00,meteohub,2013-01-29 11:21:00,
2013-01-29 11:27:00,56.1,51.4,29.57,West,270,4.0,9.0,84,0.00,,,0.00,meteohub,2013-01-29 11:27:00,
2013-01-29 11:32:00,56.1,51.1,29.57,SW,225,3.0,9.0,83,0.00,,,0.00,meteohub,2013-01-29 11:32:00,
2013-01-29 11:36:00,56.1,51.1,29.57,West,270,6.0,9.0,83,0.00,,,0.00,meteohub,2013-01-29 11:36:00,
2013-01-29 11:42:00,56.1,51.1,29.57,WSW,248,5.0,8.0,83,0.00,,,0.00,meteohub,2013-01-29 11:42:00,
2013-01-29 11:47:00,55.9,50.9,29.57,WSW,248,4.0,8.0,83,0.00,,,0.00,meteohub,2013-01-29 11:47:00,
2013-01-29 11:52:00,55.9,50.9,29.57,SSW,202,6.0,11.0,83,0.00,,,0.00,meteohub,2013-01-29 11:52:00,
2013-01-29 11:57:00,55.9,51.3,29.57,NE,45,3.0,11.0,84,0.00,,,0.00,meteohub,2013-01-29 11:57:00,
2013-01-29 12:01:00,55.9,51.3,29.57,NW,315,5.0,8.0,84,0.00,,,0.00,meteohub,2013-01-29 12:01:00,
2013-01-29 12:07:00,55.8,51.1,29.57,North,0,4.0,6.0,84,0.00,,,0.00,meteohub,2013-01-29 12:07:00,
2013-01-29 12:11:00,55.9,51.4,29.57,NNW,338,4.0,10.0,85,0.00,,,0.00,meteohub,2013-01-29 12:11:00,
2013-01-29 12:17:00,55.9,51.4,29.57,WNW,292,4.0,10.0,85,0.00,,,0.00,meteohub,2013-01-29 12:17:00,
2013-01-29 12:21:00,56.1,51.6,29.57,East,90,3.0,10.0,85,0.00,,,0.00,meteohub,2013-01-29 12:21:00,
2013-01-29 12:27:00,56.1,51.6,29.57,NW,315,3.0,8.0,85,0.00,,,0.00,meteohub,2013-01-29 12:27:00,
2013-01-29 12:32:00,56.1,51.6,29.57,West,270,3.0,7.0,85,0.00,,,0.00,meteohub,2013-01-29 12:32:00,
2013-01-29 12:37:00,56.3,51.8,29.57,South,180,4.0,10.0,85,0.00,,,0.00,meteohub,2013-01-29 12:37:00,
2013-01-29 12:42:00,56.3,51.8,29.54,North,0,5.0,10.0,85,0.00,,,0.00,meteohub,2013-01-29 12:42:00,
2013-01-29 12:47:00,56.3,52.2,29.54,WNW,292,3.0,10.0,86,0.00,,,0.00,meteohub,2013-01-29 12:47:00,
2013-01-29 12:52:00,56.1,52.0,29.54,NNW,338,5.0,9.0,86,0.00,,,0.00,meteohub,2013-01-29 12:52:00,
2013-01-29 12:57:00,56.3,52.2,29.57,NNW,338,8.0,8.0,86,0.00,,,0.00,meteohub,2013-01-29 12:57:00,
2013-01-29 13:02:00,56.3,52.5,29.57,West,270,3.0,9.0,87,0.00,,,0.00,meteohub,2013-01-29 13:02:00,
2013-01-29 13:06:00,56.3,52.5,29.57,WNW,292,4.0,9.0,87,0.00,,,0.00,meteohub,2013-01-29 13:06:00,
2013-01-29 13:12:00,56.5,52.7,29.57,NW,315,4.0,10.0,87,0.00,,,0.00,meteohub,2013-01-29 13:12:00,
2013-01-29 13:16:00,56.5,52.3,29.57,NW,315,3.0,10.0,86,0.00,,,0.00,meteohub,2013-01-29 13:16:00,
2013-01-29 13:22:00,56.7,52.2,29.57,NNW,338,4.0,10.0,85,0.00,,,0.00,meteohub,2013-01-29 13:22:00,
2013-01-29 13:26:00,56.7,51.8,29.54,South,180,6.0,8.0,84,0.00,,,0.00,meteohub,2013-01-29 13:26:00,
2013-01-29 13:31:00,56.8,51.8,29.54,NNW,338,8.0,8.0,83,0.00,,,0.00,meteohub,2013-01-29 13:31:00,
2013-01-29 13:37:00,56.8,51.8,29.54,SW,225,4.0,10.0,83,0.00,,,0.00,meteohub,2013-01-29 13:37:00,
2013-01-29 13:42:00,56.8,51.4,29.54,North,0,4.0,11.0,82,0.00,,,0.00,meteohub,2013-01-29 13:42:00,
2013-01-29 13:46:00,56.8,51.1,29.54,SE,135,4.0,11.0,81,0.00,,,0.00,meteohub,2013-01-29 13:46:00,
2013-01-29 13:52:00,56.8,51.1,29.54,WSW,248,3.0,11.0,81,0.00,,,0.00,meteohub,2013-01-29 13:52:00,
2013-01-29 13:57:00,56.8,51.1,29.54,NNW,338,7.0,10.0,81,0.00,,,0.00,meteohub,2013-01-29 13:57:00,
2013-01-29 14:02:00,56.8,50.7,29.54,North,0,8.0,10.0,80,0.00,,,0.00,meteohub,2013-01-29 14:02:00,
2013-01-29 14:06:00,56.8,50.7,29.54,WNW,292,4.0,10.0,80,0.00,,,0.00,meteohub,2013-01-29 14:06:00,
2013-01-29 14:12:00,56.8,50.4,29.54,West,270,10.0,10.0,79,0.00,,,0.00,meteohub,2013-01-29 14:12:00,
2013-01-29 14:17:00,56.7,50.2,29.54,SW,225,4.0,10.0,79,0.00,,,0.00,meteohub,2013-01-29 14:17:00,
2013-01-29 14:22:00,56.7,49.8,29.54,WSW,248,6.0,12.0,78,0.00,,,0.00,meteohub,2013-01-29 14:22:00,
2013-01-29 14:27:00,56.7,49.8,29.54,North,0,5.0,12.0,78,0.00,,,0.00,meteohub,2013-01-29 14:27:00,
2013-01-29 14:31:00,56.7,49.8,29.54,SW,225,5.0,12.0,78,0.00,,,0.00,meteohub,2013-01-29 14:31:00,
2013-01-29 14:37:00,56.7,49.5,29.54,WSW,248,3.0,10.0,77,0.00,,,0.00,meteohub,2013-01-29 14:37:00,
2013-01-29 14:41:00,56.7,49.5,29.54,NNW,338,3.0,10.0,77,0.00,,,0.00,meteohub,2013-01-29 14:41:00,
2013-01-29 14:47:00,56.8,49.6,29.54,WNW,292,6.0,9.0,77,0.00,,,0.00,meteohub,2013-01-29 14:47:00,
2013-01-29 14:52:00,56.8,49.3,29.54,NNW,338,5.0,9.0,76,0.00,,,0.00,meteohub,2013-01-29 14:52:00,
2013-01-29 14:58:00,56.8,49.3,29.54,SW,225,4.0,9.0,76,0.00,,,0.00,meteohub,2013-01-29 14:58:00,
2013-01-29 15:04:00,56.8,49.3,29.54,SSW,202,5.0,8.0,76,0.00,,,0.00,meteohub,2013-01-29 15:04:00,
2013-01-29 15:10:00,56.8,49.3,29.54,SSW,202,8.0,11.0,76,0.00,,,0.00,meteohub,2013-01-29 15:10:00,
2013-01-29 15:16:00,56.8,49.3,29.54,West,270,7.0,11.0,76,0.00,,,0.00,meteohub,2013-01-29 15:16:00,
2013-01-29 15:22:00,56.8,49.3,29.54,WSW,248,4.0,9.0,76,0.00,,,0.00,meteohub,2013-01-29 15:22:00,
2013-01-29 15:27:00,56.8,49.3,29.54,WNW,292,4.0,9.0,76,0.00,,,0.00,meteohub,2013-01-29 15:27:00,
2013-01-29 15:31:00,56.8,49.6,29.54,WSW,248,6.0,8.0,77,0.00,,,0.00,meteohub,2013-01-29 15:31:00,
2013-01-29 15:37:00,56.8,50.0,29.54,WNW,292,4.0,13.0,78,0.00,,,0.00,meteohub,2013-01-29 15:37:00,
2013-01-29 15:42:00,56.8,50.0,29.54,SW,225,5.0,13.0,78,0.00,,,0.00,meteohub,2013-01-29 15:42:00,
2013-01-29 15:47:00,56.7,50.2,29.54,WNW,292,6.0,13.0,79,0.00,,,0.00,meteohub,2013-01-29 15:47:00,
2013-01-29 15:52:00,56.5,50.0,29.54,WSW,248,8.0,11.0,79,0.00,,,0.00,meteohub,2013-01-29 15:52:00,
2013-01-29 15:57:00,56.5,50.4,29.51,WNW,292,5.0,10.0,80,0.00,,,0.00,meteohub,2013-01-29 15:57:00,
2013-01-29 16:02:00,56.5,50.7,29.51,West,270,8.0,13.0,81,0.00,,,0.00,meteohub,2013-01-29 16:02:00,
2013-01-29 16:07:00,56.5,51.1,29.51,WNW,292,6.0,13.0,82,0.00,,,0.00,meteohub,2013-01-29 16:07:00,
2013-01-29 16:12:00,56.3,50.9,29.51,ESE,112,4.0,10.0,82,0.00,,,0.00,meteohub,2013-01-29 16:12:00,
2013-01-29 16:16:00,56.3,50.9,29.51,NNW,338,4.0,9.0,82,0.00,,,0.00,meteohub,2013-01-29 16:16:00,
2013-01-29 16:21:00,56.3,50.9,29.51,WNW,292,6.0,9.0,82,0.00,,,0.00,meteohub,2013-01-29 16:21:00,
2013-01-29 16:27:00,56.3,50.9,29.54,North,0,6.0,8.0,82,0.00,,,0.00,meteohub,2013-01-29 16:27:00,
2013-01-29 16:32:00,56.3,50.9,29.54,NE,45,3.0,9.0,82,0.00,,,0.00,meteohub,2013-01-29 16:32:00,
2013-01-29 16:36:00,56.3,50.5,29.54,NNW,338,4.0,9.0,81,0.00,,,0.00,meteohub,2013-01-29 16:36:00,
2013-01-29 16:42:00,56.5,50.7,29.54,WNW,292,4.0,10.0,81,0.00,,,0.00,meteohub,2013-01-29 16:42:00,
2013-01-29 16:47:00,56.3,50.2,29.54,North,0,3.0,10.0,80,0.00,,,0.00,meteohub,2013-01-29 16:47:00,
2013-01-29 16:52:00,56.3,50.2,29.54,NNW,338,7.0,8.0,80,0.00,,,0.00,meteohub,2013-01-29 16:52:00,
2013-01-29 16:57:00,56.3,50.2,29.54,West,270,3.0,10.0,80,0.00,,,0.00,meteohub,2013-01-29 16:57:00,
2013-01-29 17:02:00,56.3,50.2,29.54,WNW,292,4.0,12.0,80,0.00,,,0.00,meteohub,2013-01-29 17:02:00,
2013-01-29 17:07:00,56.3,50.2,29.54,SSE,158,6.0,12.0,80,0.00,,,0.00,meteohub,2013-01-29 17:07:00,
2013-01-29 17:12:00,56.3,50.2,29.54,WSW,248,4.0,12.0,80,0.00,,,0.00,meteohub,2013-01-29 17:12:00,
2013-01-29 17:17:00,56.3,50.5,29.54,SSW,202,5.0,10.0,81,0.00,,,0.00,meteohub,2013-01-29 17:17:00,
2013-01-29 17:22:00,56.1,50.4,29.54,SSW,202,3.0,8.0,81,0.00,,,0.00,meteohub,2013-01-29 17:22:00,
2013-01-29 17:27:00,56.1,50.7,29.54,SSW,202,8.0,8.0,82,0.00,,,0.00,meteohub,2013-01-29 17:27:00,
2013-01-29 17:32:00,56.1,51.1,29.54,SSW,202,4.0,12.0,83,0.00,,,0.00,meteohub,2013-01-29 17:32:00,
2013-01-29 17:37:00,55.9,50.9,29.54,ESE,112,4.0,12.0,83,0.00,,,0.00,meteohub,2013-01-29 17:37:00,
2013-01-29 17:42:00,55.9,51.3,29.54,SW,225,5.0,12.0,84,0.00,,,0.00,meteohub,2013-01-29 17:42:00,
2013-01-29 17:47:00,55.8,51.3,29.54,West,270,3.0,8.0,85,0.00,,,0.00,meteohub,2013-01-29 17:47:00,
2013-01-29 17:52:00,55.6,51.4,29.54,WSW,248,3.0,8.0,86,0.00,,,0.00,meteohub,2013-01-29 17:52:00,
2013-01-29 17:57:00,55.6,51.8,29.54,WSW,248,3.0,8.0,87,0.00,,,0.00,meteohub,2013-01-29 17:57:00,
2013-01-29 18:02:00,55.6,52.2,29.54,NNE,22,5.0,11.0,88,0.00,,,0.00,meteohub,2013-01-29 18:02:00,
2013-01-29 18:08:00,55.4,52.0,29.54,WNW,292,6.0,11.0,88,0.00,,,0.00,meteohub,2013-01-29 18:08:00,
2013-01-29 18:14:00,55.4,52.2,29.51,WSW,248,6.0,11.0,89,0.00,,,0.00,meteohub,2013-01-29 18:14:00,
2013-01-29 18:20:00,55.4,52.2,29.51,SSW,202,3.0,9.0,89,0.00,,,0.00,meteohub,2013-01-29 18:20:00,
2013-01-29 18:26:00,55.4,52.5,29.51,WSW,248,5.0,9.0,90,0.00,,,0.00,meteohub,2013-01-29 18:26:00,
2013-01-29 18:32:00,55.4,52.5,29.51,NW,315,6.0,8.0,90,0.00,,,0.00,meteohub,2013-01-29 18:32:00,
2013-01-29 18:36:00,55.4,52.5,29.51,NNW,338,4.0,11.0,90,0.00,,,0.00,meteohub,2013-01-29 18:36:00,
2013-01-29 18:42:00,55.4,52.5,29.54,West,270,4.0,11.0,90,0.00,,,0.00,meteohub,2013-01-29 18:42:00,
2013-01-29 18:47:00,55.4,52.5,29.54,SSW,202,6.0,9.0,90,0.00,,,0.00,meteohub,2013-01-29 18:47:00,
2013-01-29 18:52:00,55.4,52.5,29.54,West,270,6.0,11.0,90,0.00,,,0.00,meteohub,2013-01-29 18:52:00,
2013-01-29 18:57:00,55.2,52.7,29.51,WSW,248,3.0,11.0,91,0.00,,,0.00,meteohub,2013-01-29 18:57:00,
2013-01-29 19:03:00,55.2,52.7,29.51,WSW,248,4.0,11.0,91,0.00,,,0.00,meteohub,2013-01-29 19:03:00,
2013-01-29 19:09:00,55.2,52.7,29.51,WNW,292,4.0,9.0,91,0.00,,,0.00,meteohub,2013-01-29 19:09:00,
2013-01-29 19:15:00,55.4,52.5,29.54,NW,315,8.0,11.0,90,0.00,,,0.00,meteohub,2013-01-29 19:15:00,
2013-01-29 19:21:00,55.4,52.2,29.54,NNE,22,5.0,11.0,89,0.00,,,0.00,meteohub,2013-01-29 19:21:00,
2013-01-29 19:27:00,55.4,52.2,29.51,WSW,248,6.0,10.0,89,0.00,,,0.00,meteohub,2013-01-29 19:27:00,
2013-01-29 19:31:00,55.4,52.2,29.51,WNW,292,3.0,12.0,89,0.00,,,0.00,meteohub,2013-01-29 19:31:00,
2013-01-29 19:37:00,55.2,52.0,29.51,WNW,292,5.0,12.0,89,0.00,,,0.00,meteohub,2013-01-29 19:37:00,
2013-01-29 19:42:00,55.2,52.0,29.51,SW,225,5.0,12.0,89,0.00,,,0.00,meteohub,2013-01-29 19:42:00,
2013-01-29 19:47:00,55.4,52.2,29.51,North,0,11.0,11.0,89,0.00,,,0.00,meteohub,2013-01-29 19:47:00,
2013-01-29 19:53:00,55.4,52.2,29.51,SSW,202,4.0,11.0,89,0.00,,,0.00,meteohub,2013-01-29 19:53:00,
2013-01-29 19:59:00,55.4,52.2,29.54,WSW,248,6.0,11.0,89,0.00,,,0.00,meteohub,2013-01-29 19:59:00,
2013-01-29 20:05:00,55.2,52.3,29.54,NNW,338,7.0,15.0,90,0.00,,,0.00,meteohub,2013-01-29 20:05:00,
2013-01-29 20:11:00,55.0,52.2,29.51,SW,225,4.0,11.0,90,0.00,,,0.00,meteohub,2013-01-29 20:11:00,
2013-01-29 20:17:00,55.0,52.2,29.51,WNW,292,8.0,11.0,90,0.00,,,0.00,meteohub,2013-01-29 20:17:00,
2013-01-29 20:23:00,55.0,52.5,29.51,WSW,248,4.0,11.0,91,0.00,,,0.00,meteohub,2013-01-29 20:23:00,
2013-01-29 20:29:00,55.0,52.5,29.51,WNW,292,8.0,11.0,91,0.00,,,0.00,meteohub,2013-01-29 20:29:00,
2013-01-29 20:37:00,55.0,52.5,29.51,NW,315,7.0,11.0,91,0.00,,,0.00,meteohub,2013-01-29 20:37:00,
2013-01-29 20:41:00,55.0,52.5,29.51,WNW,292,6.0,10.0,91,0.00,,,0.00,meteohub,2013-01-29 20:41:00,
2013-01-29 20:47:00,55.0,52.5,29.51,WSW,248,10.0,10.0,91,0.00,,,0.00,meteohub,2013-01-29 20:47:00,
2013-01-29 20:52:00,55.0,52.5,29.51,SW,225,4.0,11.0,91,0.00,,,0.00,meteohub,2013-01-29 20:52:00,
2013-01-29 20:58:00,54.9,52.3,29.51,North,0,4.0,11.0,91,0.00,,,0.00,meteohub,2013-01-29 20:58:00,
2013-01-29 21:04:00,55.0,52.5,29.51,WNW,292,12.0,12.0,91,0.00,,,0.00,meteohub,2013-01-29 21:04:00,
2013-01-29 21:10:00,55.0,52.2,29.51,WNW,292,5.0,12.0,90,0.00,,,0.00,meteohub,2013-01-29 21:10:00,
2013-01-29 21:17:00,54.9,52.0,29.51,West,270,5.0,12.0,90,0.00,,,0.00,meteohub,2013-01-29 21:17:00,
2013-01-29 21:23:00,55.0,52.2,29.51,WSW,248,4.0,9.0,90,0.00,,,0.00,meteohub,2013-01-29 21:23:00,
2013-01-29 21:29:00,55.0,51.8,29.51,NW,315,3.0,13.0,89,0.00,,,0.00,meteohub,2013-01-29 21:29:00,
2013-01-29 21:35:00,55.0,51.8,29.51,WSW,248,5.0,13.0,89,0.00,,,0.00,meteohub,2013-01-29 21:35:00,
2013-01-29 21:41:00,55.0,51.8,29.51,NW,315,5.0,9.0,89,0.00,,,0.00,meteohub,2013-01-29 21:41:00,
2013-01-29 21:47:00,55.0,51.8,29.51,SSW,202,6.0,9.0,89,0.00,,,0.00,meteohub,2013-01-29 21:47:00,
2013-01-29 21:52:00,55.0,52.2,29.51,NW,315,5.0,11.0,90,0.00,,,0.00,meteohub,2013-01-29 21:52:00,
2013-01-29 21:57:00,55.0,52.2,29.51,WSW,248,4.0,11.0,90,0.00,,,0.00,meteohub,2013-01-29 21:57:00,
2013-01-29 22:02:00,55.0,52.2,29.51,SW,225,6.0,11.0,90,0.00,,,0.00,meteohub,2013-01-29 22:02:00,
2013-01-29 22:07:00,55.0,52.2,29.51,NW,315,5.0,11.0,90,0.00,,,0.00,meteohub,2013-01-29 22:07:00,
2013-01-29 22:12:00,55.0,52.2,29.51,West,270,6.0,11.0,90,0.00,,,0.00,meteohub,2013-01-29 22:12:00,
2013-01-29 22:18:00,55.0,52.5,29.51,SSW,202,4.0,12.0,91,0.00,,,0.00,meteohub,2013-01-29 22:18:00,
2013-01-29 22:24:00,55.0,52.5,29.51,West,270,4.0,12.0,91,0.04,,,0.04,meteohub,2013-01-29 22:24:00,
2013-01-29 22:30:00,55.0,52.5,29.51,WNW,292,3.0,12.0,91,0.04,,,0.04,meteohub,2013-01-29 22:30:00,
2013-01-29 22:36:00,55.0,52.5,29.51,WNW,292,4.0,10.0,91,0.04,,,0.04,meteohub,2013-01-29 22:36:00,
2013-01-29 22:42:00,55.0,52.5,29.48,SW,225,7.0,10.0,91,0.04,,,0.04,meteohub,2013-01-29 22:42:00,
2013-01-29 22:47:00,55.0,52.5,29.48,SW,225,4.0,8.0,91,0.04,,,0.04,meteohub,2013-01-29 22:47:00,
2013-01-29 22:52:00,55.0,52.5,29.48,WNW,292,4.0,8.0,91,0.04,,,0.04,meteohub,2013-01-29 22:52:00,
2013-01-29 22:58:00,55.0,52.5,29.48,East,90,8.0,10.0,91,0.04,,,0.04,meteohub,2013-01-29 22:58:00,
2013-01-29 23:04:00,55.0,52.5,29.48,WSW,248,4.0,10.0,91,0.04,,,0.04,meteohub,2013-01-29 23:04:00,
2013-01-29 23:11:00,55.2,52.7,29.48,ENE,68,4.0,10.0,91,0.04,,,0.04,meteohub,2013-01-29 23:11:00,
2013-01-29 23:17:00,55.2,52.7,29.48,NNW,338,3.0,10.0,91,0.04,,,0.04,meteohub,2013-01-29 23:17:00,
2013-01-29 23:23:00,55.2,52.7,29.48,NNW,338,4.0,10.0,91,0.00,,,0.04,meteohub,2013-01-29 23:23:00,
2013-01-29 23:29:00,55.2,52.7,29.48,WNW,292,5.0,8.0,91,0.00,,,0.04,meteohub,2013-01-29 23:29:00,
2013-01-29 23:35:00,55.2,52.7,29.48,WNW,292,4.0,9.0,91,0.00,,,0.04,meteohub,2013-01-29 23:35:00,
2013-01-29 23:41:00,55.2,52.7,29.48,NW,315,3.0,9.0,91,0.00,,,0.04,meteohub,2013-01-29 23:41:00,
2013-01-29 23:47:00,55.2,52.7,29.48,NNE,22,3.0,9.0,91,0.00,,,0.04,meteohub,2013-01-29 23:47:00,
2013-01-29 23:52:00,55.2,52.7,29.48,ENE,68,2.0,9.0,91,0.00,,,0.04,meteohub,2013-01-29 23:52:00,
2013-01-29 23:57:00,55.2,52.7,29.48,NNW,338,4.0,8.0,91,0.00,,,0.04,meteohub,2013-01-29 23:57:00,